Year,Month,Day,Hour,Minute,Value (Times are PST for temperature in C)
2007,04,18,00,00,1.80
2007,04,18,00,01,1.70
2007,04,18,00,02,1.70
2007,04,18,00,03,1.70
2007,04,18,00,04,1.70
2007,04,18,00,05,1.70
2007,04,18,00,06,1.70
2007,04,18,00,07,1.70
2007,04,18,00,08,1.60
2007,04,18,00,09,1.60
2007,04,18,00,10,1.60
2007,04,18,00,11,1.60
2007,04,18,00,12,1.60
2007,04,18,00,13,1.60
2007,04,18,00,14,1.60
2007,04,18,00,15,1.60
2007,04,18,00,16,1.60
2007,04,18,00,17,1.60
2007,04,18,00,18,1.60
2007,04,18,00,19,1.60
2007,04,18,00,20,1.60
2007,04,18,00,21,1.60
2007,04,18,00,22,1.60
2007,04,18,00,23,1.60
2007,04,18,00,24,1.60
2007,04,18,00,25,1.60
2007,04,18,00,26,1.60
2007,04,18,00,27,1.60
2007,04,18,00,28,1.60
2007,04,18,00,29,1.60
2007,04,18,00,30,1.60
2007,04,18,00,31,1.60
2007,04,18,00,32,1.60
2007,04,18,00,33,1.70
2007,04,18,00,34,1.70
2007,04,18,00,35,1.70
2007,04,18,00,36,1.70
2007,04,18,00,37,1.70
2007,04,18,00,38,1.60
2007,04,18,00,39,1.60
2007,04,18,00,40,1.60
2007,04,18,00,41,1.60
2007,04,18,00,42,1.60
2007,04,18,00,43,1.60
2007,04,18,00,44,1.60
2007,04,18,00,45,1.60
2007,04,18,00,46,1.60
2007,04,18,00,47,1.50
2007,04,18,00,48,1.50
2007,04,18,00,49,1.50
2007,04,18,00,50,1.50
2007,04,18,00,51,1.50
2007,04,18,00,52,1.40
2007,04,18,00,53,1.40
2007,04,18,00,54,1.40
2007,04,18,00,55,1.40
2007,04,18,00,56,1.40
2007,04,18,00,57,1.40
2007,04,18,00,58,1.30
2007,04,18,00,59,1.30
2007,04,18,01,00,1.30
2007,04,18,01,01,1.30
2007,04,18,01,02,1.30
2007,04,18,01,03,1.30
2007,04,18,01,04,1.30
2007,04,18,01,05,1.30
2007,04,18,01,06,1.30
2007,04,18,01,07,1.30
2007,04,18,01,08,1.30
2007,04,18,01,09,1.30
2007,04,18,01,10,1.30
2007,04,18,01,11,1.20
2007,04,18,01,12,1.20
2007,04,18,01,13,1.20
2007,04,18,01,14,1.20
2007,04,18,01,15,1.20
2007,04,18,01,16,1.20
2007,04,18,01,17,1.20
2007,04,18,01,18,1.20
2007,04,18,01,19,1.10
2007,04,18,01,20,1.10
2007,04,18,01,21,1.10
2007,04,18,01,22,1.10
2007,04,18,01,23,1.10
2007,04,18,01,24,1.10
2007,04,18,01,25,1.10
2007,04,18,01,26,1.20
2007,04,18,01,27,1.20
2007,04,18,01,28,1.20
2007,04,18,01,29,1.20
2007,04,18,01,30,1.20
2007,04,18,01,31,1.20
2007,04,18,01,32,1.20
2007,04,18,01,33,1.20
2007,04,18,01,34,1.20
2007,04,18,01,35,1.20
2007,04,18,01,36,1.20
2007,04,18,01,37,1.20
2007,04,18,01,38,1.20
2007,04,18,01,39,1.20
2007,04,18,01,40,1.20
2007,04,18,01,41,1.20
2007,04,18,01,42,1.20
2007,04,18,01,43,1.20
2007,04,18,01,44,1.20
2007,04,18,01,45,1.30
2007,04,18,01,46,1.30
2007,04,18,01,47,1.30
2007,04,18,01,48,1.30
2007,04,18,01,49,1.30
2007,04,18,01,50,1.30
2007,04,18,01,51,1.30
2007,04,18,01,52,1.30
2007,04,18,01,53,1.30
2007,04,18,01,54,1.30
2007,04,18,01,55,1.30
2007,04,18,01,56,1.30
2007,04,18,01,57,1.30
2007,04,18,01,58,1.40
2007,04,18,01,59,1.40
2007,04,18,02,00,1.40
2007,04,18,02,01,1.40
2007,04,18,02,02,1.40
2007,04,18,02,03,1.50
2007,04,18,02,04,1.50
2007,04,18,02,05,1.50
2007,04,18,02,06,1.50
2007,04,18,02,07,1.60
2007,04,18,02,08,1.60
2007,04,18,02,09,1.60
2007,04,18,02,10,1.70
2007,04,18,02,11,1.70
2007,04,18,02,12,1.80
2007,04,18,02,13,1.80
2007,04,18,02,14,1.80
2007,04,18,02,15,1.80
2007,04,18,02,16,1.90
2007,04,18,02,17,1.90
2007,04,18,02,18,1.90
2007,04,18,02,19,1.90
2007,04,18,02,20,1.90
2007,04,18,02,21,1.90
2007,04,18,02,22,1.90
2007,04,18,02,23,1.90
2007,04,18,02,24,1.90
2007,04,18,02,25,1.90
2007,04,18,02,26,1.90
2007,04,18,02,27,1.90
2007,04,18,02,28,1.90
2007,04,18,02,29,1.90
2007,04,18,02,30,1.90
2007,04,18,02,31,1.90
2007,04,18,02,32,1.90
2007,04,18,02,33,1.90
2007,04,18,02,34,1.90
2007,04,18,02,35,1.90
2007,04,18,02,36,1.90
2007,04,18,02,37,1.90
2007,04,18,02,38,1.90
2007,04,18,02,39,1.90
2007,04,18,02,40,1.90
2007,04,18,02,41,1.80
2007,04,18,02,42,1.80
2007,04,18,02,43,1.80
2007,04,18,02,44,1.80
2007,04,18,02,45,1.80
2007,04,18,02,46,1.70
2007,04,18,02,47,1.70
2007,04,18,02,48,1.70
2007,04,18,02,49,1.70
2007,04,18,02,50,1.60
2007,04,18,02,51,1.60
2007,04,18,02,52,1.60
2007,04,18,02,53,1.60
2007,04,18,02,54,1.60
2007,04,18,02,55,1.60
2007,04,18,02,56,1.60
2007,04,18,02,57,1.60
2007,04,18,02,58,1.60
2007,04,18,02,59,1.50
2007,04,18,03,00,1.60
2007,04,18,03,01,1.60
2007,04,18,03,02,1.60
2007,04,18,03,03,1.60
2007,04,18,03,04,1.60
2007,04,18,03,05,1.60
2007,04,18,03,06,1.60
2007,04,18,03,07,1.60
2007,04,18,03,08,1.60
2007,04,18,03,09,1.70
2007,04,18,03,10,1.70
2007,04,18,03,11,1.70
2007,04,18,03,12,1.70
2007,04,18,03,13,1.80
2007,04,18,03,14,1.80
2007,04,18,03,15,1.80
2007,04,18,03,16,1.80
2007,04,18,03,17,1.80
2007,04,18,03,18,1.80
2007,04,18,03,19,1.80
2007,04,18,03,20,1.80
2007,04,18,03,21,1.80
2007,04,18,03,22,1.80
2007,04,18,03,23,1.80
2007,04,18,03,24,1.80
2007,04,18,03,25,1.80
2007,04,18,03,26,1.80
2007,04,18,03,27,1.80
2007,04,18,03,28,1.80
2007,04,18,03,29,1.70
2007,04,18,03,30,1.70
2007,04,18,03,31,1.70
2007,04,18,03,32,1.70
2007,04,18,03,33,1.70
2007,04,18,03,34,1.70
2007,04,18,03,35,1.70
2007,04,18,03,36,1.60
2007,04,18,03,37,1.60
2007,04,18,03,38,1.60
2007,04,18,03,39,1.60
2007,04,18,03,40,1.60
2007,04,18,03,41,1.60
2007,04,18,03,42,1.60
2007,04,18,03,43,1.60
2007,04,18,03,44,1.60
2007,04,18,03,45,1.60
2007,04,18,03,46,1.60
2007,04,18,03,47,1.60
2007,04,18,03,48,1.70
2007,04,18,03,49,1.70
2007,04,18,03,50,1.70
2007,04,18,03,51,1.80
2007,04,18,03,52,1.80
2007,04,18,03,53,1.80
2007,04,18,03,54,1.80
2007,04,18,03,55,1.80
2007,04,18,03,56,1.90
2007,04,18,03,57,1.90
2007,04,18,03,58,1.90
2007,04,18,03,59,1.90
2007,04,18,04,00,1.90
2007,04,18,04,01,1.90
2007,04,18,04,02,1.90
2007,04,18,04,03,2.00
2007,04,18,04,04,2.00
2007,04,18,04,05,2.00
2007,04,18,04,06,2.00
2007,04,18,04,07,2.00
2007,04,18,04,08,2.00
2007,04,18,04,09,2.00
2007,04,18,04,10,2.00
2007,04,18,04,11,2.00
2007,04,18,04,12,2.00
2007,04,18,04,13,2.00
2007,04,18,04,14,2.00
2007,04,18,04,15,2.10
2007,04,18,04,16,2.10
2007,04,18,04,17,2.10
2007,04,18,04,18,2.10
2007,04,18,04,19,2.10
2007,04,18,04,20,2.10
2007,04,18,04,21,2.10
2007,04,18,04,22,2.10
2007,04,18,04,23,2.10
2007,04,18,04,24,2.10
2007,04,18,04,25,2.10
2007,04,18,04,26,2.10
2007,04,18,04,27,2.10
2007,04,18,04,28,2.10
2007,04,18,04,29,2.10
2007,04,18,04,30,2.10
2007,04,18,04,31,2.10
2007,04,18,04,32,2.10
2007,04,18,04,33,2.10
2007,04,18,04,34,2.10
2007,04,18,04,35,2.10
2007,04,18,04,36,2.10
2007,04,18,04,37,2.10
2007,04,18,04,38,2.10
2007,04,18,04,39,2.10
2007,04,18,04,40,2.10
2007,04,18,04,41,2.10
2007,04,18,04,42,2.10
2007,04,18,04,43,2.10
2007,04,18,04,44,2.10
2007,04,18,04,45,2.10
2007,04,18,04,46,2.10
2007,04,18,04,47,2.10
2007,04,18,04,48,2.10
2007,04,18,04,49,2.10
2007,04,18,04,50,2.10
2007,04,18,04,51,2.10
2007,04,18,04,52,2.10
2007,04,18,04,53,2.10
2007,04,18,04,54,2.00
2007,04,18,04,55,2.00
2007,04,18,04,56,2.00
2007,04,18,04,57,2.00
2007,04,18,04,58,2.00
2007,04,18,04,59,2.00
2007,04,18,05,00,2.00
2007,04,18,05,01,2.00
2007,04,18,05,02,1.90
2007,04,18,05,03,1.90
2007,04,18,05,04,1.90
2007,04,18,05,05,1.90
2007,04,18,05,06,1.90
2007,04,18,05,07,1.90
2007,04,18,05,08,1.90
2007,04,18,05,09,1.80
2007,04,18,05,10,1.80
2007,04,18,05,11,1.80
2007,04,18,05,12,1.80
2007,04,18,05,13,1.80
2007,04,18,05,14,1.80
2007,04,18,05,15,1.80
2007,04,18,05,16,1.80
2007,04,18,05,17,1.80
2007,04,18,05,18,1.80
2007,04,18,05,19,1.80
2007,04,18,05,20,1.80
2007,04,18,05,21,1.80
2007,04,18,05,22,1.80
2007,04,18,05,23,1.80
2007,04,18,05,24,1.80
2007,04,18,05,25,1.80
2007,04,18,05,26,1.80
2007,04,18,05,27,1.80
2007,04,18,05,28,1.80
2007,04,18,05,29,1.80
2007,04,18,05,30,1.80
2007,04,18,05,31,1.80
2007,04,18,05,32,1.80
2007,04,18,05,33,1.80
2007,04,18,05,34,1.80
2007,04,18,05,35,1.90
2007,04,18,05,36,1.90
2007,04,18,05,37,1.90
2007,04,18,05,38,1.90
2007,04,18,05,39,1.90
2007,04,18,05,40,1.90
2007,04,18,05,41,1.90
2007,04,18,05,42,1.90
2007,04,18,05,43,1.90
2007,04,18,05,44,1.90
2007,04,18,05,45,1.90
2007,04,18,05,46,1.90
2007,04,18,05,47,1.90
2007,04,18,05,48,1.90
2007,04,18,05,49,2.00
2007,04,18,05,50,2.00
2007,04,18,05,51,2.00
2007,04,18,05,52,2.00
2007,04,18,05,53,2.00
2007,04,18,05,54,2.00
2007,04,18,05,55,2.00
2007,04,18,05,56,2.00
2007,04,18,05,57,2.00
2007,04,18,05,58,2.00
2007,04,18,05,59,2.00
2007,04,18,06,00,2.00
2007,04,18,06,01,2.00
2007,04,18,06,02,2.00
2007,04,18,06,03,2.00
2007,04,18,06,04,1.90
2007,04,18,06,05,1.90
2007,04,18,06,06,1.90
2007,04,18,06,07,1.90
2007,04,18,06,08,1.90
2007,04,18,06,09,1.90
2007,04,18,06,10,1.90
2007,04,18,06,11,1.90
2007,04,18,06,12,1.90
2007,04,18,06,13,1.90
2007,04,18,06,14,1.90
2007,04,18,06,15,1.90
2007,04,18,06,16,1.80
2007,04,18,06,17,1.80
2007,04,18,06,18,1.80
2007,04,18,06,19,1.80
2007,04,18,06,20,1.80
2007,04,18,06,21,1.80
2007,04,18,06,22,1.80
2007,04,18,06,23,1.80
2007,04,18,06,24,1.80
2007,04,18,06,25,1.80
2007,04,18,06,26,1.80
2007,04,18,06,27,1.80
2007,04,18,06,28,1.80
2007,04,18,06,29,1.80
2007,04,18,06,30,1.80
2007,04,18,06,31,1.70
2007,04,18,06,32,1.70
2007,04,18,06,33,1.70
2007,04,18,06,34,1.70
2007,04,18,06,35,1.70
2007,04,18,06,36,1.70
2007,04,18,06,37,1.70
2007,04,18,06,38,1.70
2007,04,18,06,39,1.70
2007,04,18,06,40,1.70
2007,04,18,06,41,1.70
2007,04,18,06,42,1.70
2007,04,18,06,43,1.70
2007,04,18,06,44,1.70
2007,04,18,06,45,1.70
2007,04,18,06,46,1.70
2007,04,18,06,47,1.70
2007,04,18,06,48,1.70
2007,04,18,06,49,1.70
2007,04,18,06,50,1.70
2007,04,18,06,51,1.70
2007,04,18,06,52,1.70
2007,04,18,06,53,1.70
2007,04,18,06,54,1.70
2007,04,18,06,55,1.70
2007,04,18,06,56,1.70
2007,04,18,06,57,1.70
2007,04,18,06,58,1.70
2007,04,18,06,59,1.80
2007,04,18,07,00,1.80
2007,04,18,07,01,1.80
2007,04,18,07,02,1.80
2007,04,18,07,03,1.80
2007,04,18,07,04,1.80
2007,04,18,07,05,1.80
2007,04,18,07,06,1.80
2007,04,18,07,07,1.80
2007,04,18,07,08,1.80
2007,04,18,07,09,1.80
2007,04,18,07,10,1.90
2007,04,18,07,11,1.90
2007,04,18,07,12,1.90
2007,04,18,07,13,2.00
2007,04,18,07,14,2.00
2007,04,18,07,15,2.00
2007,04,18,07,16,2.00
2007,04,18,07,17,2.00
2007,04,18,07,18,2.00
2007,04,18,07,19,2.00
2007,04,18,07,20,2.00
2007,04,18,07,21,2.00
2007,04,18,07,22,2.00
2007,04,18,07,23,2.00
2007,04,18,07,24,2.00
2007,04,18,07,25,2.00
2007,04,18,07,26,2.00
2007,04,18,07,27,2.00
2007,04,18,07,28,2.00
2007,04,18,07,29,2.00
2007,04,18,07,30,1.90
2007,04,18,07,31,1.90
2007,04,18,07,32,1.90
2007,04,18,07,33,1.90
2007,04,18,07,34,1.90
2007,04,18,07,35,1.90
2007,04,18,07,36,1.90
2007,04,18,07,37,1.90
2007,04,18,07,38,1.80
2007,04,18,07,39,1.80
2007,04,18,07,40,1.80
2007,04,18,07,41,1.80
2007,04,18,07,42,1.80
2007,04,18,07,43,1.80
2007,04,18,07,44,1.80
2007,04,18,07,45,1.80
2007,04,18,07,46,1.80
2007,04,18,07,47,1.80
2007,04,18,07,48,1.80
2007,04,18,07,49,1.80
2007,04,18,07,50,1.80
2007,04,18,07,51,1.90
2007,04,18,07,52,1.90
2007,04,18,07,53,1.90
2007,04,18,07,54,1.90
2007,04,18,07,55,1.90
2007,04,18,07,56,1.90
2007,04,18,07,57,1.90
2007,04,18,07,58,1.90
2007,04,18,07,59,1.90
2007,04,18,08,00,1.90
2007,04,18,08,01,2.00
2007,04,18,08,02,2.00
2007,04,18,08,03,2.00
2007,04,18,08,04,2.10
2007,04,18,08,05,2.10
2007,04,18,08,06,2.10
2007,04,18,08,07,2.20
2007,04,18,08,08,2.20
2007,04,18,08,09,2.20
2007,04,18,08,10,2.30
2007,04,18,08,11,2.30
2007,04,18,08,12,2.40
2007,04,18,08,13,2.40
2007,04,18,08,14,2.50
2007,04,18,08,15,2.60
2007,04,18,08,16,2.70
2007,04,18,08,17,2.70
2007,04,18,08,18,2.70
2007,04,18,08,19,2.80
2007,04,18,08,20,2.90
2007,04,18,08,21,2.90
2007,04,18,08,22,2.90
2007,04,18,08,23,3.10
2007,04,18,08,24,3.10
2007,04,18,08,25,3.10
2007,04,18,08,26,3.10
2007,04,18,08,27,3.20
2007,04,18,08,28,3.20
2007,04,18,08,29,3.30
2007,04,18,08,30,3.30
2007,04,18,08,31,3.40
2007,04,18,08,32,3.50
2007,04,18,08,33,3.50
2007,04,18,08,34,3.60
2007,04,18,08,35,3.70
2007,04,18,08,36,3.80
2007,04,18,08,37,3.90
2007,04,18,08,38,3.90
2007,04,18,08,39,4.00
2007,04,18,08,40,4.00
2007,04,18,08,41,4.00
2007,04,18,08,42,4.10
2007,04,18,08,43,4.20
2007,04,18,08,44,4.30
2007,04,18,08,45,4.40
2007,04,18,08,46,4.50
2007,04,18,08,47,4.50
2007,04,18,08,48,4.60
2007,04,18,08,49,4.60
2007,04,18,08,50,4.60
2007,04,18,08,51,4.70
2007,04,18,08,52,4.70
2007,04,18,08,53,4.80
2007,04,18,08,54,4.90
2007,04,18,08,55,5.00
2007,04,18,08,56,5.10
2007,04,18,08,57,5.20
2007,04,18,08,58,5.20
2007,04,18,08,59,5.30
2007,04,18,09,00,5.30
2007,04,18,09,01,5.30
2007,04,18,09,02,5.30
2007,04,18,09,03,5.30
2007,04,18,09,04,5.30
2007,04,18,09,05,5.30
2007,04,18,09,06,5.30
2007,04,18,09,07,5.30
2007,04,18,09,08,5.30
2007,04,18,09,09,5.50
2007,04,18,09,10,5.60
2007,04,18,09,11,5.70
2007,04,18,09,12,5.90
2007,04,18,09,13,6.00
2007,04,18,09,14,6.20
2007,04,18,09,15,6.30
2007,04,18,09,16,6.40
2007,04,18,09,17,6.60
2007,04,18,09,18,6.70
2007,04,18,09,19,6.80
2007,04,18,09,20,6.90
2007,04,18,09,21,7.10
2007,04,18,09,22,7.20
2007,04,18,09,23,7.30
2007,04,18,09,24,7.50
2007,04,18,09,25,7.60
2007,04,18,09,26,7.70
2007,04,18,09,27,7.80
2007,04,18,09,28,7.90
2007,04,18,09,29,7.90
2007,04,18,09,30,8.00
2007,04,18,09,31,8.00
2007,04,18,09,32,8.00
2007,04,18,09,33,8.00
2007,04,18,09,34,8.00
2007,04,18,09,35,8.00
2007,04,18,09,36,7.90
2007,04,18,09,37,7.90
2007,04,18,09,38,7.80
2007,04,18,09,39,7.80
2007,04,18,09,40,7.70
2007,04,18,09,41,7.60
2007,04,18,09,42,7.60
2007,04,18,09,43,7.50
2007,04,18,09,44,7.50
2007,04,18,09,45,7.50
2007,04,18,09,46,7.40
2007,04,18,09,47,7.40
2007,04,18,09,48,7.40
2007,04,18,09,49,7.30
2007,04,18,09,50,7.30
2007,04,18,09,51,7.20
2007,04,18,09,52,7.10
2007,04,18,09,53,7.10
2007,04,18,09,54,7.00
2007,04,18,09,55,7.00
2007,04,18,09,56,7.00
2007,04,18,09,57,7.00
2007,04,18,09,58,6.90
2007,04,18,09,59,6.90
2007,04,18,10,00,6.90
2007,04,18,10,01,6.80
2007,04,18,10,02,6.80
2007,04,18,10,03,6.80
2007,04,18,10,04,6.90
2007,04,18,10,05,6.90
2007,04,18,10,06,7.00
2007,04,18,10,07,7.00
2007,04,18,10,08,7.10
2007,04,18,10,09,7.20
2007,04,18,10,10,7.30
2007,04,18,10,11,7.30
2007,04,18,10,12,7.40
2007,04,18,10,13,7.40
2007,04,18,10,14,7.50
2007,04,18,10,15,7.50
2007,04,18,10,16,7.60
2007,04,18,10,17,7.70
2007,04,18,10,18,7.70
2007,04,18,10,19,7.80
2007,04,18,10,20,7.80
2007,04,18,10,21,7.90
2007,04,18,10,22,7.90
2007,04,18,10,23,8.00
2007,04,18,10,24,8.10
2007,04,18,10,25,8.20
2007,04,18,10,26,8.20
2007,04,18,10,27,8.30
2007,04,18,10,28,8.30
2007,04,18,10,29,8.40
2007,04,18,10,30,8.40
2007,04,18,10,31,8.40
2007,04,18,10,32,8.40
2007,04,18,10,33,8.30
2007,04,18,10,34,8.30
2007,04,18,10,35,8.40
2007,04,18,10,36,8.40
2007,04,18,10,37,8.40
2007,04,18,10,38,8.50
2007,04,18,10,39,8.50
2007,04,18,10,40,8.50
2007,04,18,10,41,8.50
2007,04,18,10,42,8.50
2007,04,18,10,43,8.50
2007,04,18,10,44,8.40
2007,04,18,10,45,8.40
2007,04,18,10,46,8.40
2007,04,18,10,47,8.30
2007,04,18,10,48,8.30
2007,04,18,10,49,8.30
2007,04,18,10,50,8.30
2007,04,18,10,51,8.20
2007,04,18,10,52,8.20
2007,04,18,10,53,8.20
2007,04,18,10,54,8.10
2007,04,18,10,55,8.00
2007,04,18,10,56,8.00
2007,04,18,10,57,7.90
2007,04,18,10,58,7.90
2007,04,18,10,59,7.80
2007,04,18,11,00,7.80
2007,04,18,11,01,7.70
2007,04,18,11,02,7.60
2007,04,18,11,03,7.60
2007,04,18,11,04,7.50
2007,04,18,11,05,7.50
2007,04,18,11,06,7.40
2007,04,18,11,07,7.30
2007,04,18,11,08,7.30
2007,04,18,11,09,7.30
2007,04,18,11,10,7.20
2007,04,18,11,11,7.20
2007,04,18,11,12,7.20
2007,04,18,11,13,7.10
2007,04,18,11,14,7.10
2007,04,18,11,15,7.00
2007,04,18,11,16,7.00
2007,04,18,11,17,7.00
2007,04,18,11,18,7.00
2007,04,18,11,19,6.90
2007,04,18,11,20,6.90
2007,04,18,11,21,6.90
2007,04,18,11,22,6.90
2007,04,18,11,23,6.90
2007,04,18,11,24,6.90
2007,04,18,11,25,6.90
2007,04,18,11,26,6.90
2007,04,18,11,27,6.90
2007,04,18,11,28,6.90
2007,04,18,11,29,6.80
2007,04,18,11,30,6.80
2007,04,18,11,31,6.80
2007,04,18,11,32,6.80
2007,04,18,11,33,6.80
2007,04,18,11,34,6.80
2007,04,18,11,35,6.80
2007,04,18,11,36,6.80
2007,04,18,11,37,6.80
2007,04,18,11,38,6.80
2007,04,18,11,39,6.80
2007,04,18,11,40,6.80
2007,04,18,11,41,6.80
2007,04,18,11,42,6.70
2007,04,18,11,43,6.60
2007,04,18,11,44,6.50
2007,04,18,11,45,6.40
2007,04,18,11,46,6.40
2007,04,18,11,47,6.40
2007,04,18,11,48,6.40
2007,04,18,11,49,6.40
2007,04,18,11,50,6.40
2007,04,18,11,51,6.40
2007,04,18,11,52,6.40
2007,04,18,11,53,6.40
2007,04,18,11,54,6.40
2007,04,18,11,55,6.30
2007,04,18,11,56,6.30
2007,04,18,11,57,6.20
2007,04,18,11,58,6.20
2007,04,18,11,59,6.20
2007,04,18,12,00,6.20
2007,04,18,12,01,6.20
2007,04,18,12,02,6.10
2007,04,18,12,03,6.00
2007,04,18,12,04,5.90
2007,04,18,12,05,5.90
2007,04,18,12,06,5.90
2007,04,18,12,07,5.90
2007,04,18,12,08,5.90
2007,04,18,12,09,5.90
2007,04,18,12,10,5.90
2007,04,18,12,11,5.90
2007,04,18,12,12,6.00
2007,04,18,12,13,6.00
2007,04,18,12,14,6.10
2007,04,18,12,15,6.30
2007,04,18,12,16,6.40
2007,04,18,12,17,6.50
2007,04,18,12,18,6.70
2007,04,18,12,19,6.90
2007,04,18,12,20,7.10
2007,04,18,12,21,7.20
2007,04,18,12,22,7.30
2007,04,18,12,23,7.30
2007,04,18,12,24,7.30
2007,04,18,12,25,7.40
2007,04,18,12,26,7.50
2007,04,18,12,27,7.50
2007,04,18,12,28,7.50
2007,04,18,12,29,7.50
2007,04,18,12,30,7.50
2007,04,18,12,31,7.50
2007,04,18,12,32,7.50
2007,04,18,12,33,7.50
2007,04,18,12,34,7.40
2007,04,18,12,35,7.30
2007,04,18,12,36,7.30
2007,04,18,12,37,7.30
2007,04,18,12,38,7.30
2007,04,18,12,39,7.30
2007,04,18,12,40,7.40
2007,04,18,12,41,7.40
2007,04,18,12,42,7.50
2007,04,18,12,43,7.60
2007,04,18,12,44,7.70
2007,04,18,12,45,7.90
2007,04,18,12,46,7.90
2007,04,18,12,47,8.00
2007,04,18,12,48,8.10
2007,04,18,12,49,8.20
2007,04,18,12,50,8.30
2007,04,18,12,51,8.30
2007,04,18,12,52,8.40
2007,04,18,12,53,8.40
2007,04,18,12,54,8.40
2007,04,18,12,55,8.50
2007,04,18,12,56,8.60
2007,04,18,12,57,8.70
2007,04,18,12,58,8.70
2007,04,18,12,59,8.80
2007,04,18,13,00,8.80
2007,04,18,13,01,8.80
2007,04,18,13,02,8.80
2007,04,18,13,03,8.70
2007,04,18,13,04,8.70
2007,04,18,13,05,8.70
2007,04,18,13,06,8.70
2007,04,18,13,07,8.70
2007,04,18,13,08,8.70
2007,04,18,13,09,8.60
2007,04,18,13,10,8.60
2007,04,18,13,11,8.60
2007,04,18,13,12,8.70
2007,04,18,13,13,8.80
2007,04,18,13,14,8.90
2007,04,18,13,15,9.00
2007,04,18,13,16,9.20
2007,04,18,13,17,9.30
2007,04,18,13,18,9.30
2007,04,18,13,19,9.40
2007,04,18,13,20,9.40
2007,04,18,13,21,9.50
2007,04,18,13,22,9.70
2007,04,18,13,23,9.70
2007,04,18,13,24,9.70
2007,04,18,13,25,9.70
2007,04,18,13,26,9.70
2007,04,18,13,27,9.70
2007,04,18,13,28,9.60
2007,04,18,13,29,9.40
2007,04,18,13,30,9.30
2007,04,18,13,31,9.20
2007,04,18,13,32,9.10
2007,04,18,13,33,9.10
2007,04,18,13,34,9.00
2007,04,18,13,35,9.00
2007,04,18,13,36,9.00
2007,04,18,13,37,9.00
2007,04,18,13,38,9.00
2007,04,18,13,39,9.00
2007,04,18,13,40,8.90
2007,04,18,13,41,8.80
2007,04,18,13,42,8.80
2007,04,18,13,43,8.70
2007,04,18,13,44,8.70
2007,04,18,13,45,8.60
2007,04,18,13,46,8.60
2007,04,18,13,47,8.50
2007,04,18,13,48,8.50
2007,04,18,13,49,8.50
2007,04,18,13,50,8.40
2007,04,18,13,51,8.40
2007,04,18,13,52,8.30
2007,04,18,13,53,8.30
2007,04,18,13,54,8.20
2007,04,18,13,55,8.20
2007,04,18,13,56,8.20
2007,04,18,13,57,8.20
2007,04,18,13,58,8.20
2007,04,18,13,59,8.30
2007,04,18,14,00,8.30
2007,04,18,14,01,8.40
2007,04,18,14,02,8.40
2007,04,18,14,03,8.40
2007,04,18,14,04,8.40
2007,04,18,14,05,8.50
2007,04,18,14,06,8.50
2007,04,18,14,07,8.50
2007,04,18,14,08,8.40
2007,04,18,14,09,8.40
2007,04,18,14,10,8.40
2007,04,18,14,11,8.40
2007,04,18,14,12,8.50
2007,04,18,14,13,8.50
2007,04,18,14,14,8.50
2007,04,18,14,15,8.50
2007,04,18,14,16,8.60
2007,04,18,14,17,8.60
2007,04,18,14,18,8.60
2007,04,18,14,19,8.70
2007,04,18,14,20,8.70
2007,04,18,14,21,8.70
2007,04,18,14,22,8.60
2007,04,18,14,23,8.50
2007,04,18,14,24,8.50
2007,04,18,14,25,8.40
2007,04,18,14,26,8.30
2007,04,18,14,27,8.20
2007,04,18,14,28,8.20
2007,04,18,14,29,8.20
2007,04,18,14,30,8.10
2007,04,18,14,31,8.00
2007,04,18,14,32,8.00
2007,04,18,14,33,7.90
2007,04,18,14,34,7.80
2007,04,18,14,35,7.80
2007,04,18,14,36,7.70
2007,04,18,14,37,7.70
2007,04,18,14,38,7.60
2007,04,18,14,39,7.50
2007,04,18,14,40,7.50
2007,04,18,14,41,7.40
2007,04,18,14,42,7.30
2007,04,18,14,43,7.30
2007,04,18,14,44,7.20
2007,04,18,14,45,7.10
2007,04,18,14,46,7.10
2007,04,18,14,47,7.00
2007,04,18,14,48,6.90
2007,04,18,14,49,6.80
2007,04,18,14,50,6.80
2007,04,18,14,51,6.60
2007,04,18,14,52,6.50
2007,04,18,14,53,6.40
2007,04,18,14,54,6.40
2007,04,18,14,55,6.40
2007,04,18,14,56,6.40
2007,04,18,14,57,6.40
2007,04,18,14,58,6.40
2007,04,18,14,59,6.40
2007,04,18,15,00,6.50
2007,04,18,15,01,6.60
2007,04,18,15,02,6.70
2007,04,18,15,03,6.80
2007,04,18,15,04,6.90
2007,04,18,15,05,7.00
2007,04,18,15,06,7.20
2007,04,18,15,07,7.40
2007,04,18,15,08,7.60
2007,04,18,15,09,7.70
2007,04,18,15,10,7.80
2007,04,18,15,11,7.90
2007,04,18,15,12,8.00
2007,04,18,15,13,8.10
2007,04,18,15,14,8.20
2007,04,18,15,15,8.20
2007,04,18,15,16,8.20
2007,04,18,15,17,8.30
2007,04,18,15,18,8.40
2007,04,18,15,19,8.40
2007,04,18,15,20,8.40
2007,04,18,15,21,8.50
2007,04,18,15,22,8.60
2007,04,18,15,23,8.70
2007,04,18,15,24,8.70
2007,04,18,15,25,8.80
2007,04,18,15,26,8.90
2007,04,18,15,27,8.90
2007,04,18,15,28,9.10
2007,04,18,15,29,9.20
2007,04,18,15,30,9.30
2007,04,18,15,31,9.30
2007,04,18,15,32,9.40
2007,04,18,15,33,9.50
2007,04,18,15,34,9.60
2007,04,18,15,35,9.60
2007,04,18,15,36,9.50
2007,04,18,15,37,9.50
2007,04,18,15,38,9.60
2007,04,18,15,39,9.70
2007,04,18,15,40,9.70
2007,04,18,15,41,9.70
2007,04,18,15,42,9.70
2007,04,18,15,43,9.70
2007,04,18,15,44,9.70
2007,04,18,15,45,9.70
2007,04,18,15,46,9.70
2007,04,18,15,47,9.70
2007,04,18,15,48,9.70
2007,04,18,15,49,9.50
2007,04,18,15,50,9.50
2007,04,18,15,51,9.40
2007,04,18,15,52,9.40
2007,04,18,15,53,9.50
2007,04,18,15,54,9.50
2007,04,18,15,55,9.50
2007,04,18,15,56,9.60
2007,04,18,15,57,9.60
2007,04,18,15,58,9.60
2007,04,18,15,59,9.60
2007,04,18,16,00,9.70
2007,04,18,16,01,9.70
2007,04,18,16,02,9.70
2007,04,18,16,03,9.70
2007,04,18,16,04,9.70
2007,04,18,16,05,9.70
2007,04,18,16,06,9.70
2007,04,18,16,07,9.70
2007,04,18,16,08,9.70
2007,04,18,16,09,9.60
2007,04,18,16,10,9.50
2007,04,18,16,11,9.40
2007,04,18,16,12,9.40
2007,04,18,16,13,9.40
2007,04,18,16,14,9.30
2007,04,18,16,15,9.30
2007,04,18,16,16,9.20
2007,04,18,16,17,9.20
2007,04,18,16,18,9.10
2007,04,18,16,19,9.10
2007,04,18,16,20,9.00
2007,04,18,16,21,9.00
2007,04,18,16,22,8.90
2007,04,18,16,23,8.90
2007,04,18,16,24,8.90
2007,04,18,16,25,8.80
2007,04,18,16,26,8.80
2007,04,18,16,27,8.80
2007,04,18,16,28,8.90
2007,04,18,16,29,8.90
2007,04,18,16,30,8.90
2007,04,18,16,31,8.90
2007,04,18,16,32,8.80
2007,04,18,16,33,8.80
2007,04,18,16,34,8.80
2007,04,18,16,35,8.80
2007,04,18,16,36,8.80
2007,04,18,16,37,8.90
2007,04,18,16,38,8.90
2007,04,18,16,39,9.00
2007,04,18,16,40,8.90
2007,04,18,16,41,8.90
2007,04,18,16,42,8.90
2007,04,18,16,43,8.80
2007,04,18,16,44,8.80
2007,04,18,16,45,8.80
2007,04,18,16,46,8.80
2007,04,18,16,47,8.80
2007,04,18,16,48,8.80
2007,04,18,16,49,8.70
2007,04,18,16,50,8.70
2007,04,18,16,51,8.70
2007,04,18,16,52,8.70
2007,04,18,16,53,8.70
2007,04,18,16,54,8.70
2007,04,18,16,55,8.70
2007,04,18,16,56,8.70
2007,04,18,16,57,8.70
2007,04,18,16,58,8.60
2007,04,18,16,59,8.60
2007,04,18,17,00,8.60
2007,04,18,17,01,8.60
2007,04,18,17,02,8.60
2007,04,18,17,03,8.60
2007,04,18,17,04,8.60
2007,04,18,17,05,8.50
2007,04,18,17,06,8.50
2007,04,18,17,07,8.50
2007,04,18,17,08,8.50
2007,04,18,17,09,8.50
2007,04,18,17,10,8.40
2007,04,18,17,11,8.40
2007,04,18,17,12,8.40
2007,04,18,17,13,8.30
2007,04,18,17,14,8.30
2007,04,18,17,15,8.30
2007,04,18,17,16,8.30
2007,04,18,17,17,8.20
2007,04,18,17,18,8.20
2007,04,18,17,19,8.20
2007,04,18,17,20,8.20
2007,04,18,17,21,8.20
2007,04,18,17,22,8.10
2007,04,18,17,23,8.10
2007,04,18,17,24,8.00
2007,04,18,17,25,8.00
2007,04,18,17,26,8.00
2007,04,18,17,27,7.90
2007,04,18,17,28,7.90
2007,04,18,17,29,7.90
2007,04,18,17,30,7.90
2007,04,18,17,31,7.90
2007,04,18,17,32,7.80
2007,04,18,17,33,7.80
2007,04,18,17,34,7.80
2007,04,18,17,35,7.80
2007,04,18,17,36,7.80
2007,04,18,17,37,7.80
2007,04,18,17,38,7.80
2007,04,18,17,39,7.80
2007,04,18,17,40,7.80
2007,04,18,17,41,7.90
2007,04,18,17,42,7.90
2007,04,18,17,43,7.90
2007,04,18,17,44,7.90
2007,04,18,17,45,7.90
2007,04,18,17,46,7.90
2007,04,18,17,47,7.90
2007,04,18,17,48,7.90
2007,04,18,17,49,7.90
2007,04,18,17,50,7.90
2007,04,18,17,51,7.90
2007,04,18,17,52,7.90
2007,04,18,17,53,7.90
2007,04,18,17,54,7.90
2007,04,18,17,55,8.00
2007,04,18,17,56,8.00
2007,04,18,17,57,8.00
2007,04,18,17,58,8.00
2007,04,18,17,59,8.00
2007,04,18,18,00,8.00
2007,04,18,18,01,8.10
2007,04,18,18,02,8.10
2007,04,18,18,03,8.20
2007,04,18,18,04,8.20
2007,04,18,18,05,8.20
2007,04,18,18,06,8.20